[[{"header":{"parameterUnit":"m.s-1","parameterCategory":1,"la1":30.2991,"la2":30.254,"lo1":-89.0895,"lo2":-89.0444,"dy":0.0017,"dx":0.0017,"nx":28,"ny":28,"refTime":"2024-05-05T21:00:00:Z","depth":0,"parameterNumber":2,"parameterNumberName":"U-component_of_WINDS"},"data":[0,0,0,0,0,0,0,0,0,0,0,0,0,0,0,0,0,0,0,0,0,0,0,0,0,0,0,0,0,0,0,0,0,0,0,0,0,0,0,0,0,0,0,0,0,0,0,0,0,0,0,0,0,0,0,0,0,0,-1.7084,-1.7084,0,-1.7087,-1.7087,-1.7087,-1.7074,-1.7073,-1.7073,-1.7073,-1.7076,-1.7077,-1.7077,0,0,0,0,0,0,0,0,0,0,0,0,0,-1.7068,-1.7068,-1.7084,-1.7084,-1.7084,-1.7087,-1.7087,-1.7087,-1.7074,-1.7073,-1.7073,-1.7072,-1.7076,-1.7077,-1.7077,0,0,0,0,0,0,0,0,0,0,0,0,0,-1.7073,-1.7068,-1.7084,-1.7078,-1.7077,-1.7087,-1.7087,-1.7087,-1.7074,-1.7073,-1.7073,-1.7072,-1.7076,-1.7077,-1.7077,-1.7094,0,0,-1.708,-1.708,0,0,0,0,0,0,0,0,-1.7073,-1.7074,-1.7078,-1.7078,-1.7077,-1.7079,-1.7083,-1.7089,-1.7074,-1.7075,-1.7073,-1.7072,-1.7078,-1.7078,-1.708,-1.7094,-1.7094,-1.708,-1.708,-1.708,-1.7081,0,0,0,0,0,0,0,-1.7073,-1.7074,-1.7085,-1.7079,-1.7078,-1.7075,-1.7075,-1.7084,-1.708,-1.7075,-1.7074,-1.7075,-1.7077,-1.708,-1.708,-1.7094,-1.708,-1.708,-1.7081,-1.7081,-1.7122,-1.7123,0,0,0,0,0,0,-1.7073,-1.7074,-1.7085,-1.7085,-1.7074,-1.7076,-1.7076,-1.7079,-1.708,-1.7079,-1.7075,-1.7074,-1.7079,-1.7079,-1.708,-1.71,-1.708,-1.7081,-1.7081,-1.7122,-1.7123,-1.7123,0,0,0,0,0,0,-1.7073,-1.7074,-1.7085,-1.7079,-1.708,-1.7077,-1.7081,-1.708,-1.7082,-1.708,-1.7079,-1.7078,-1.7078,-1.7079,-1.7091,-1.71,-1.7081,-1.7082,-1.7121,-1.7122,-1.7123,-1.7138,0,0,0,0,0,0,-1.7072,-1.7074,-1.708,-1.7079,-1.7081,-1.7094,-1.7081,-1.708,-1.7083,-1.7082,-1.7082,-1.7082,-1.7078,-1.709,-1.7091,-1.71,-1.7083,-1.712,-1.7121,-1.7123,-1.7137,-1.714,-1.7142,0,0,0,0,0,-1.7072,-1.7084,-1.708,-1.7081,-1.7087,-1.7095,-1.7096,-1.7091,-1.7084,-1.709,-1.7089,-1.7082,-1.7099,-1.7091,-1.7093,-1.7102,-1.7119,-1.7121,-1.7122,-1.7136,-1.7139,-1.7142,0,0,0,0,0,0,-1.7085,-1.7083,-1.7079,-1.7091,-1.7093,-1.7093,-1.71,-1.7095,-1.7099,-1.7097,-1.7091,-1.7092,-1.7104,-1.7104,-1.7096,-1.7118,-1.7108,-1.711,-1.7117,-1.7121,-1.7123,-1.7122,-1.7083,0,0,0,0,0,-1.7089,-1.7095,-1.7094,-1.7105,-1.7106,-1.7103,-1.7106,-1.7102,-1.7104,-1.7105,-1.7105,-1.7107,-1.7113,-1.7117,-1.7122,-1.7138,-1.7138,-1.7145,-1.7148,-1.715,-1.7151,-1.716,-1.7163,-1.7128,-1.7128,-1.7128,0,0,-1.7098,-1.7098,-1.7102,-1.7107,-1.7108,-1.7115,-1.7103,-1.7111,-1.7116,-1.7106,-1.7116,-1.7117,-1.7119,-1.7133,-1.7139,-1.7133,-1.7161,-1.7152,-1.7153,-1.7154,-1.7162,-1.7165,-1.7168,-1.7129,-1.7129,-1.7129,0,0,-1.7117,-1.7118,-1.7127,-1.7129,-1.7131,-1.7129,-1.7132,-1.7132,-1.7132,-1.7142,-1.7136,-1.7142,-1.7152,-1.7155,-1.7157,-1.718,-1.7174,-1.7182,-1.7195,-1.7204,-1.7207,-1.7209,-1.7217,-1.722,-1.7184,-1.7184,-1.7184,0,-1.7128,-1.7137,-1.7132,-1.7141,-1.7143,-1.7136,-1.7146,-1.7148,-1.7152,-1.7154,-1.7148,-1.7162,-1.7163,-1.7177,-1.7183,-1.7185,-1.7188,-1.7181,-1.7206,-1.7209,-1.7211,-1.7219,-1.7222,-1.7185,-1.7185,-1.7185,-1.7185,0,-1.715,-1.7157,-1.7164,-1.7168,-1.7172,-1.7181,-1.7179,-1.7184,-1.7181,-1.718,-1.7192,-1.7193,-1.7199,-1.7202,-1.7199,-1.7217,-1.7213,-1.7207,-1.7196,-1.7215,-1.7223,-1.7225,-1.7186,-1.7186,-1.7186,-1.7185,0,0,-1.7175,-1.7178,-1.7181,-1.7183,-1.7186,-1.7191,-1.7201,-1.7207,-1.7211,-1.7215,-1.7223,-1.7233,-1.7228,-1.7231,-1.7228,-1.7236,-1.7254,-1.7229,-1.7229,-1.7233,-1.7274,-1.7278,-1.7282,-1.7251,-1.7252,-1.7252,-1.7274,0,-1.7194,-1.7209,-1.7207,-1.7222,-1.7228,-1.7222,-1.7231,-1.7234,-1.7234,-1.724,-1.7241,-1.7248,-1.724,-1.7242,-1.725,-1.725,-1.7262,-1.7249,-1.7259,-1.7259,-1.7257,-1.7286,-1.729,-1.731,-1.7277,-1.7277,-1.7278,0,-1.7217,-1.7222,-1.7238,-1.7241,-1.7244,-1.7251,-1.7257,-1.7263,-1.7267,-1.7267,-1.7271,-1.7268,-1.7278,-1.7268,-1.7283,-1.7274,-1.7278,-1.728,-1.728,-1.728,-1.7269,-1.7286,-1.7316,-1.7319,-1.7282,-1.7282,-1.7281,0,-1.7234,-1.7245,-1.7256,-1.7258,-1.7261,-1.7267,-1.7269,-1.7272,-1.7277,-1.7282,-1.7285,-1.7292,-1.7296,-1.7302,-1.7301,-1.7294,-1.7316,-1.7306,-1.7317,-1.7317,-1.732,-1.732,-1.7351,-1.7324,-1.7324,-1.7324,-1.7324,0,-1.7255,-1.7265,-1.7263,-1.727,-1.7281,-1.7279,-1.7291,-1.7292,-1.7296,-1.7303,-1.7299,-1.7306,-1.7305,-1.7312,-1.7312,-1.7324,-1.7326,-1.7327,-1.7326,-1.7326,-1.7326,-1.7328,-1.7327,-1.7325,-1.7325,-1.7325,-1.7325,0,-1.7275,-1.7274,-1.7286,-1.7289,-1.729,-1.7298,-1.7301,-1.7308,-1.7309,-1.7318,-1.7321,-1.7322,-1.7331,-1.733,-1.7341,-1.734,-1.7356,-1.7354,-1.7354,-1.7354,-1.7364,-1.7363,-1.7397,-1.7402,-1.7372,-1.7373,-1.7373,0,-1.7287,-1.7295,-1.7299,-1.7304,-1.7306,-1.7313,-1.7318,-1.7317,-1.7322,-1.7328,-1.7334,-1.7343,-1.735,-1.7365,-1.7367,-1.7375,-1.7373,-1.7385,-1.7374,-1.7375,-1.7373,-1.7372,-1.7373,-1.7386,-1.7387,-1.7387,-1.7387,0,-1.731,-1.731,-1.7316,-1.7323,-1.7328,-1.7334,-1.7339,-1.7343,-1.7343,-1.7349,-1.7358,-1.7363,-1.7374,-1.7383,-1.7391,-1.7394,-1.7391,-1.7391,-1.7393,-1.7393,-1.7393,-1.7393,-1.7359,-1.7389,-1.7389,-1.7389,-1.7389,-1.7389,-1.7326,-1.7333,-1.7337,-1.7345,-1.7349,-1.7354,-1.7361,-1.7363,-1.737,-1.7378,-1.7378,-1.7388,-1.7394,-1.7405,-1.7409,-1.7417,-1.7413,-1.7417,-1.7418,-1.7419,-1.742,-1.7393,-1.7419,-1.7419,-1.7419,-1.7419,-1.7419,0,-1.7349,-1.7351,-1.7359,-1.7366,-1.7372,-1.7369,-1.7375,-1.7381,-1.739,-1.7395,-1.7402,-1.7413,-1.7422,-1.7426,-1.7435,-1.7442,-1.744,-1.7444,-1.7443,-1.7444,-1.7423,-1.742,-1.7445,-1.7445,-1.7445,-1.7445,-1.7445,-1.7445,-1.7361,-1.7372,-1.7373,-1.7387,-1.739,-1.7399,-1.7403,-1.7408,-1.7413,-1.7425,-1.7433,-1.7435,-1.744,-1.745,-1.7459,-1.746,-1.7463,-1.7467,-1.7468,-1.7448,-1.7445,-1.7443,-1.7439,-1.7468,-1.7468,-1.7488,-1.7488,-1.7488]},{"header":{"parameterUnit":"m.s-1","parameterCategory":1,"la1":30.2991,"la2":30.254,"lo1":-89.0895,"lo2":-89.0444,"dy":0.0017,"dx":0.0017,"nx":28,"ny":28,"refTime":"2024-05-05T21:00:00:Z","depth":0,"parameterNumber":3,"parameterNumberName":"V-component_of_WINDS"},"data":[0,0,0,0,0,0,0,0,0,0,0,0,0,0,0,0,0,0,0,0,0,0,0,0,0,0,0,0,0,0,0,0,0,0,0,0,0,0,0,0,0,0,0,0,0,0,0,0,0,0,0,0,0,0,0,0,0,0,3.9369,3.9369,0,3.94,3.9401,3.9401,3.9459,3.946,3.9461,3.9462,3.9491,3.9491,3.949,0,0,0,0,0,0,0,0,0,0,0,0,0,3.9357,3.9357,3.9369,3.9369,3.937,3.94,3.9401,3.9401,3.9459,3.946,3.9462,3.9463,3.9491,3.9491,3.949,0,0,0,0,0,0,0,0,0,0,0,0,0,3.9372,3.9357,3.9369,3.9402,3.9406,3.94,3.9401,3.9401,3.9459,3.946,3.9462,3.9464,3.9491,3.9491,3.949,3.9453,0,0,3.9489,3.9489,0,0,0,0,0,0,0,0,3.9371,3.9373,3.9397,3.94,3.9404,3.9428,3.9407,3.9418,3.9458,3.9438,3.9462,3.9464,3.9468,3.947,3.9472,3.9455,3.9456,3.9489,3.9488,3.9488,3.9488,0,0,0,0,0,0,0,3.937,3.9372,3.9381,3.9397,3.9401,3.9415,3.9419,3.9409,3.9443,3.944,3.9444,3.9448,3.947,3.9472,3.9473,3.9456,3.9489,3.9488,3.9488,3.9488,3.9412,3.941,0,0,0,0,0,0,3.9365,3.937,3.938,3.9382,3.9392,3.9414,3.9418,3.9418,3.9443,3.9449,3.9446,3.945,3.9472,3.9473,3.9474,3.9433,3.9488,3.9488,3.9488,3.9414,3.9411,3.941,0,0,0,0,0,0,3.9364,3.9365,3.9379,3.9378,3.938,3.9412,3.9411,3.9418,3.942,3.9448,3.9454,3.9442,3.9473,3.9475,3.9459,3.9435,3.9488,3.9487,3.9416,3.9413,3.941,3.9351,0,0,0,0,0,0,3.9364,3.9365,3.9351,3.9377,3.938,3.9363,3.941,3.9417,3.9419,3.9425,3.9446,3.9451,3.9475,3.9459,3.9458,3.9435,3.9487,3.9418,3.9414,3.9411,3.9355,3.9346,3.9339,0,0,0,0,0,3.9363,3.9332,3.935,3.9351,3.9365,3.9362,3.9364,3.9393,3.9417,3.9404,3.9422,3.945,3.9438,3.9457,3.9456,3.9433,3.9419,3.9415,3.9412,3.9359,3.9348,3.9339,0,0,0,0,0,0,3.9301,3.9336,3.9357,3.9333,3.9344,3.9372,3.9356,3.9381,3.9385,3.939,3.9425,3.9429,3.9408,3.9419,3.944,3.9399,3.9433,3.9429,3.9393,3.9383,3.9375,3.9373,3.9487,0,0,0,0,0,3.9286,3.9282,3.9312,3.9288,3.9293,3.9323,3.9323,3.9345,3.9358,3.9362,3.9379,3.939,3.9388,3.9386,3.9387,3.9357,3.9363,3.9341,3.9333,3.9326,3.9322,3.9308,3.9299,3.9397,3.9397,3.9397,0,0,3.9252,3.927,3.9265,3.9276,3.9288,3.9282,3.9327,3.9319,3.9315,3.9361,3.9347,3.936,3.9374,3.9351,3.9342,3.9359,3.9297,3.9321,3.9316,3.9315,3.9303,3.9294,3.9285,3.9394,3.9394,3.9395,0,0,3.9188,3.9201,3.9184,3.9195,3.9212,3.9232,3.9228,3.9252,3.9263,3.925,3.9285,3.928,3.9277,3.9286,3.9289,3.923,3.9256,3.9229,3.9187,3.9173,3.9165,3.9159,3.9138,3.913,3.9225,3.9225,3.9225,0,3.9143,3.9137,3.9171,3.9161,3.9165,3.9208,3.9191,3.9199,3.9214,3.9216,3.9236,3.9234,3.9246,3.9226,3.9212,3.9213,3.9209,3.9227,3.9164,3.9158,3.9152,3.9132,3.9124,3.9222,3.9222,3.9222,3.9223,0,3.9082,3.9077,3.9061,3.9076,3.9079,3.9064,3.9096,3.9094,3.9116,3.9134,3.9121,3.9137,3.9142,3.9139,3.916,3.9122,3.9133,3.9158,3.9192,3.9139,3.9121,3.9114,3.9217,3.9218,3.9219,3.922,0,0,3.8978,3.9015,3.9008,3.9016,3.9039,3.9035,3.9023,3.903,3.9027,3.9037,3.9027,3.9025,3.9048,3.9053,3.9075,3.9063,3.9015,3.9089,3.909,3.9075,3.8975,3.8956,3.8946,3.9033,3.9031,3.903,3.8974,0,3.8919,3.8902,3.8933,3.8908,3.8904,3.8946,3.8936,3.8948,3.8965,3.8964,3.8983,3.898,3.9012,3.9015,3.9004,3.9023,3.8995,3.9027,3.9024,3.9023,3.9019,3.8937,3.8917,3.8863,3.8967,3.8966,3.8965,0,3.8847,3.8855,3.883,3.8855,3.8855,3.8845,3.8854,3.8852,3.8867,3.8881,3.8887,3.8914,3.8903,3.8937,3.8924,3.8945,3.8945,3.8954,3.8953,3.8953,3.899,3.8935,3.8846,3.8838,3.8954,3.8955,3.8956,0,3.8774,3.8778,3.8764,3.877,3.8799,3.8791,3.8803,3.882,3.8822,3.8829,3.8831,3.8836,3.8839,3.8842,3.887,3.8892,3.8853,3.8889,3.8863,3.8863,3.8853,3.8853,3.8762,3.8853,3.8853,3.8853,3.8854,0,3.8704,3.8687,3.8732,3.8724,3.8706,3.8742,3.8723,3.8739,3.8754,3.8749,3.8785,3.8779,3.8816,3.8814,3.8835,3.8821,3.8822,3.8832,3.8838,3.8828,3.8827,3.8829,3.8833,3.8851,3.8852,3.8852,3.8853,0,3.862,3.8649,3.8637,3.8666,3.8673,3.8659,3.8684,3.8676,3.8697,3.869,3.869,3.8721,3.8721,3.8749,3.8754,3.8768,3.8745,3.8757,3.874,3.8744,3.8716,3.8718,3.8623,3.8613,3.871,3.8709,3.8709,0,3.8573,3.8561,3.859,3.859,3.86,3.8599,3.8602,3.8636,3.8638,3.8655,3.8645,3.8649,3.8653,3.865,3.8673,3.8677,3.869,3.8656,3.869,3.8682,3.8689,3.8689,3.8689,3.8649,3.8647,3.8646,3.8645,0,3.8487,3.8503,3.8506,3.8514,3.8517,3.8525,3.8535,3.8533,3.8571,3.8571,3.8572,3.8575,3.8581,3.8583,3.8592,3.8603,3.863,3.8635,3.8629,3.8619,3.861,3.8615,3.872,3.8637,3.8637,3.8638,3.8639,3.8639,3.842,3.8412,3.8431,3.8434,3.8446,3.8455,3.845,3.847,3.8472,3.8481,3.8501,3.8499,3.8515,3.853,3.8538,3.8537,3.8553,3.8545,3.8543,3.854,3.8535,3.861,3.8538,3.8539,3.8539,3.8539,3.8539,0,3.8336,3.8351,3.8353,3.8367,3.8369,3.8397,3.841,3.8409,3.8407,3.8421,3.8425,3.8426,3.8429,3.8452,3.8458,3.8452,3.8464,3.8452,3.8452,3.8455,3.852,3.8524,3.8442,3.8442,3.8442,3.8442,3.8442,3.8442,3.8292,3.8281,3.8299,3.8293,3.8308,3.8307,3.8312,3.8321,3.8332,3.8332,3.8335,3.8351,3.8368,3.8376,3.8379,3.8386,3.8386,3.837,3.8381,3.8441,3.845,3.8459,3.8463,3.837,3.8369,3.8316,3.8315,3.8315]}]]